DW5056 Weather Reports


time (UTC)temp
C
wind
direction
speed
KPH
gust
KPH
rain 1hr
cm
rain 24hr
cm
rain mn
cm
humidity
%
barometer
mb
20260507212348 12 15 0.0 0.0 0.00 0.00 0.00 74 1017.0
20260507211850 12 15 0.0 0.0 0.00 0.00 0.00 75 1017.0
20260507211324 12 15 0.0 0.0 0.00 0.00 0.00 74 1017.0
20260507210819 12 16 0.0 0.0 0.00 0.00 0.00 74 1017.0
20260507210315 12 15 0.0 0.0 0.00 0.00 0.00 73 1017.0
20260507205827 12 15 0.0 0.0 0.00 0.00 0.00 73 1017.0
20260507205322 12 15 0.0 0.0 0.00 0.00 0.00 72 1016.9
20260507204815 12 16 0.0 0.0 0.00 0.00 0.00 71 1016.9
20260507204336 12 16 0.0 0.0 0.00 0.00 0.00 71 1016.9
20260507203818 12 15 0.0 0.0 0.00 0.00 0.00 70 1016.9
20260507203314 12 16 0.0 0.0 0.00 0.00 0.00 70 1016.9
20260507202816 12 16 0.0 0.0 0.00 0.00 0.00 69 1016.9
20260507202349 12 15 0.0 0.0 0.00 0.00 0.00 69 1016.8
20260507201851 13 16 0.0 0.0 0.00 0.00 0.00 69 1016.8
20260507201326 13 16 0.0 0.0 0.00 0.00 0.00 69 1016.8
20260507200819 13 15 0.0 0.0 0.00 0.00 0.00 70 1016.7
20260507200314 13 16 0.0 0.0 0.00 0.00 0.00 70 1016.5
20260507195826 13 16 0.0 0.0 0.00 0.00 0.00 70 1016.5
20260507195342 13 16 0.0 0.0 0.00 0.00 0.00 69 1016.5
20260507194857 13 15 0.0 0.0 0.00 0.00 0.00 68 1016.4
20260507194331 13 16 0.0 0.0 0.00 0.00 0.00 67 1016.5
20260507193822 13 15 0.0 0.0 0.00 0.00 0.00 67 1016.4
20260507193314 13 16 0.0 0.0 0.00 0.00 0.00 66 1016.4
20260507192837 13 15 0.0 0.0 0.00 0.00 0.00 66 1016.3
20260507192344 13 15 0.0 0.0 0.00 0.00 0.00 66 1016.3
20260507191824 13 15 0.0 0.0 0.00 0.00 0.00 65 1016.3
20260507191347 13 16 0.0 0.0 0.00 0.00 0.00 65 1016.3
20260507190832 13 16 0.0 0.0 0.00 0.00 0.00 65 1016.2
20260507190336 13 15 0.0 0.0 0.00 0.00 0.00 65 1016.2
20260507185845 13 15 0.0 0.0 0.00 0.00 0.00 65 1016.2
20260507185338 14 15 0.0 0.0 0.00 0.00 0.00 65 1016.2
20260507184901 14 16 0.0 0.0 0.00 0.00 0.00 63 1016.2
20260507184315 14 16 0.0 0.0 0.00 0.00 0.00 64 1016.2
20260507183822 14 16 0.0 0.0 0.00 0.00 0.00 64 1016.2
20260507183323 14 15 0.0 0.0 0.00 0.00 0.00 63 1016.2
20260507182818 14 15 0.0 0.0 0.00 0.00 0.00 64 1016.1
20260507182313 14 15 0.0 0.0 0.00 0.00 0.00 63 1016.1
20260507181837 14 15 0.0 0.0 0.00 0.00 0.00 62 1016.1
20260507181328 14 16 0.0 0.0 0.00 0.00 0.00 62 1016.2
20260507180815 15 15 0.0 0.0 0.00 0.00 0.00 62 1016.2
20260507180317 15 15 0.0 0.0 0.00 0.00 0.00 64 1016.2
20260507175820 15 16 0.0 0.0 0.00 0.00 0.00 63 1016.2
20260507175314 15 16 0.0 0.0 0.00 0.00 0.00 62 1016.2
20260507174850 15 15 0.0 0.0 0.00 0.00 0.00 63 1016.1
20260507174322 15 15 0.0 0.0 0.00 0.00 0.00 66 1016.1
20260507173832 15 16 0.0 0.0 0.00 0.00 0.00 65 1016.1
20260507173328 15 15 0.0 0.0 0.00 0.00 0.00 63 1016.1
20260507172847 15 16 0.0 1.6 0.00 0.00 0.00 64 1016.1
20260507172319 15 15 0.0 1.6 0.00 0.00 0.00 65 1016.2
20260507171814 15 16 0.0 3.2 0.00 0.00 0.00 64 1016.2
20260507171317 15 15 0.0 3.2 0.00 0.00 0.00 62 1016.2
20260507170825 15 16 0.0 3.2 0.00 0.00 0.00 62 1016.2
20260507170327 15 16 0.0 3.2 0.00 0.00 0.00 60 1016.2
20260507165840 15 337 0.0 1.6 0.00 0.00 0.00 62 1016.2
20260507165327 15 337 0.0 1.6 0.00 0.00 0.00 60 1016.2
20260507164822 16 338 0.0 1.6 0.00 0.00 0.00 58 1016.2
20260507164324 16 290 0.0 1.6 0.00 0.00 0.00 62 1016.2
20260507163839 16 291 0.0 3.2 0.00 0.00 0.00 62 1016.2
20260507163315 16 291 0.0 3.2 0.00 0.00 0.00 59 1016.2
20260507162825 16 19 0.0 3.2 0.00 0.00 0.00 59 1016.2
20260507162341 16 19 0.0 1.6 0.00 0.00 0.00 58 1016.1
20260507161822 16 19 0.0 1.6 0.00 0.00 0.00 59 1016.1
20260507161338 16 19 0.0 3.2 0.00 0.00 0.00 59 1016.1
20260507160830 16 19 0.0 3.2 0.00 0.00 0.00 59 1016.1
20260507160332 16 36 0.0 3.2 0.00 0.00 0.00 60 1016.2
20260507155835 16 92 0.0 3.2 0.00 0.00 0.00 58 1016.1
20260507155327 16 139 1.6 4.8 0.00 0.00 0.00 58 1016.1
20260507154827 16 35 0.0 4.8 0.00 0.00 0.00 58 1016.1
20260507154321 16 8 1.6 4.8 0.00 0.00 0.00 56 1016.1
20260507153831 16 37 0.0 0.0 0.00 0.00 0.00 56 1016.1
20260507153327 16 37 0.0 1.6 0.00 0.00 0.00 57 1016.1
20260507152822 16 37 0.0 3.2 0.00 0.00 0.00 57 1016.1
20260507152317 16 37 0.0 3.2 0.00 0.00 0.00 58 1016.1
20260507151814 16 37 1.6 8.0 0.00 0.00 0.00 57 1016.1
20260507151315 16 18 3.2 8.0 0.00 0.00 0.00 57 1016.1
20260507150840 16 25 1.6 6.4 0.00 0.00 0.00 58 1016.1
20260507150314 16 139 3.2 6.4 0.00 0.00 0.00 56 1016.1
20260507145856 16 321 3.2 4.8 0.00 0.00 0.00 57 1016.1
20260507145322 16 8 0.0 6.4 0.00 0.00 0.00 57 1016.0
20260507144818 16 204 3.2 6.4 0.00 0.00 0.00 55 1016.0
20260507144341 16 203 0.0 1.6 0.00 0.00 0.00 56 1016.1
20260507143835 16 202 0.0 3.2 0.00 0.00 0.00 56 1016.0
20260507143330 16 203 0.0 3.2 0.00 0.00 0.00 57 1016.0
20260507142852 16 346 0.0 3.2 0.00 0.00 0.00 59 1016.1
20260507142317 15 314 1.6 3.2 0.00 0.00 0.00 58 1016.1
20260507141839 15 8 0.0 3.2 0.00 0.00 0.00 59 1016.1
20260507141319 15 8 0.0 3.2 0.00 0.00 0.00 58 1016.2
20260507140827 15 8 0.0 1.6 0.00 0.00 0.00 59 1016.2
20260507140327 15 8 1.6 3.2 0.00 0.00 0.00 60 1016.3
20260507135838 15 281 0.0 3.2 0.00 0.00 0.00 61 1016.3
20260507135325 15 19 1.6 3.2 0.00 0.00 0.00 60 1016.3
20260507134819 15 358 0.0 1.6 0.00 0.00 0.00 62 1016.4
20260507134322 15 358 0.0 4.8 0.00 0.00 0.00 61 1016.4
20260507133838 15 358 1.6 4.8 0.00 0.00 0.00 60 1016.3
20260507133334 15 353 1.6 3.2 0.00 0.00 0.00 61 1016.3
20260507132827 15 341 1.6 3.2 0.00 0.00 0.00 61 1016.3
20260507132320 15 324 0.0 3.2 0.00 0.00 0.00 61 1016.4
20260507131840 15 325 1.6 3.2 0.00 0.00 0.00 62 1016.3
20260507131314 15 56 0.0 4.8 0.00 0.00 0.00 62 1016.3
20260507130827 15 51 1.6 4.8 0.00 0.00 0.00 61 1016.3
20260507130321 15 1 3.2 4.8 0.00 0.00 0.00 62 1016.3
20260507125836 15 328 1.6 4.8 0.00 0.00 0.00 61 1016.3
20260507125322 15 319 1.6 4.8 0.00 0.00 0.00 62 1016.3
20260507124845 15 6 1.6 4.8 0.00 0.00 0.00 62 1016.3
20260507124319 15 25 1.6 4.8 0.00 0.00 0.00 64 1016.3
20260507123849 15 50 1.6 8.0 0.00 0.00 0.00 62 1016.3
20260507123330 15 8 1.6 8.0 0.00 0.00 0.00 63 1016.2
20260507122821 15 349 3.2 6.4 0.00 0.00 0.00 63 1016.2
20260507122317 15 19 1.6 6.4 0.00 0.00 0.00 63 1016.3
20260507121832 15 353 1.6 9.7 0.00 0.00 0.00 63 1016.2
20260507121316 15 353 6.4 9.7 0.00 0.00 0.00 63 1016.2
20260507120823 15 8 1.6 6.4 0.00 0.00 0.00 62 1016.2
20260507120345 15 48 3.2 9.7 0.00 0.00 0.00 61 1016.2
20260507115838 15 51 4.8 9.7 0.00 0.00 0.00 62 1016.1
20260507115327 15 349 4.8 9.7 0.00 0.00 0.00 62 1016.1
20260507114830 16 321 3.2 9.7 0.00 0.00 0.00 58 1016.1
20260507114326 16 49 1.6 6.4 0.00 0.00 0.00 57 1016.1
20260507113822 16 41 1.6 6.4 0.00 0.00 0.00 57 1016.1
20260507113317 16 11 1.6 6.4 0.00 0.00 0.00 57 1016.1
20260507112836 15 333 3.2 6.4 0.00 0.00 0.00 58 1016.1
20260507112323 15 302 0.0 3.2 0.00 0.00 0.00 60 1016.1
20260507111825 15 13 0.0 6.4 0.00 0.00 0.00 58 1016.1
20260507111319 15 8 4.8 8.0 0.00 0.00 0.00 59 1016.2
20260507110834 15 314 4.8 8.0 0.00 0.00 0.00 58 1016.1
20260507110356 15 300 1.6 8.0 0.00 0.00 0.00 59 1016.2
20260507105823 15 8 4.8 8.0 0.00 0.00 0.00 58 1016.2
20260507105337 15 328 4.8 8.0 0.00 0.00 0.00 58 1016.2
20260507104827 16 339 3.2 8.0 0.00 0.00 0.00 58 1016.2
20260507104331 16 327 4.8 11.3 0.00 0.00 0.00 58 1016.2
20260507103838 16 33 4.8 11.3 0.00 0.00 0.00 56 1016.2
20260507103318 16 293 3.2 12.9 0.00 0.00 0.00 57 1016.2
20260507102830 16 325 6.4 12.9 0.00 0.00 0.00 57 1016.2
20260507102323 17 12 6.4 9.7 0.00 0.00 0.00 57 1016.2
20260507101817 17 349 4.8 9.7 0.00 0.00 0.00 56 1016.2
20260507101339 17 20 1.6 6.4 0.00 0.00 0.00 57 1016.2
20260507100832 16 163 3.2 6.4 0.00 0.00 0.00 59 1016.2
20260507100327 16 201 3.2 6.4 0.00 0.00 0.00 59 1016.1
20260507095820 16 130 3.2 6.4 0.00 0.00 0.00 58 1016.2
20260507095350 16 273 3.2 8.0 0.00 0.00 0.00 57 1016.1
20260507094851 17 344 3.2 8.0 0.00 0.00 0.00 57 1016.1
20260507094324 16 51 1.6 8.0 0.00 0.00 0.00 60 1016.2
20260507093838 16 19 1.6 6.4 0.00 0.00 0.00 63 1016.1
20260507093332 15 167 1.6 9.7 0.00 0.00 0.00 62 1016.1
20260507092850 15 4 3.2 11.3 0.00 0.00 0.00 63 1016.1
20260507092344 15 42 4.8 12.9 0.00 0.00 0.00 65 1016.1
20260507091819 15 46 0.0 9.7 0.00 0.00 0.00 67 1016.1
20260507091319 15 335 1.6 11.3 0.00 0.00 0.00 66 1016.0
20260507090825 14 27 6.4 11.3 0.00 0.00 0.00 66 1016.0
20260507090326 14 321 6.4 11.3 0.00 0.00 0.00 66 1016.0
20260507085839 15 330 3.2 9.7 0.00 0.00 0.00 67 1016.0
20260507085326 14 15 3.2 9.7 0.00 0.00 0.00 68 1016.0
20260507084821 13 288 3.2 9.7 0.00 0.00 0.00 68 1016.0
20260507084321 13 294 3.2 11.3 0.00 0.00 0.00 69 1015.9
20260507083835 13 47 8.0 11.3 0.00 0.00 0.00 69 1016.0
20260507083327 13 300 4.8 9.7 0.00 0.00 0.00 70 1015.9
20260507082823 13 16 4.8 12.9 0.00 0.00 0.00 68 1016.0
20260507082318 13 8 6.4 12.9 0.00 0.00 0.00 68 1016.0
20260507081814 13 297 3.2 8.0 0.00 0.00 0.00 69 1016.0
20260507081315 13 336 3.2 8.0 0.00 0.00 0.00 70 1016.1
20260507080851 13 39 1.6 8.0 0.00 0.00 0.00 72 1016.0
20260507080324 13 39 4.8 8.0 0.00 0.00 0.00 71 1016.0
20260507075818 13 347 1.6 8.0 0.00 0.00 0.00 72 1015.9
20260507075326 13 33 1.6 8.0 0.00 0.00 0.00 72 1015.9
20260507074845 12 13 4.8 8.0 0.00 0.00 0.00 72 1015.9
20260507074342 12 314 4.8 8.0 0.00 0.00 0.00 74 1015.9
20260507073837 12 319 1.6 8.0 0.00 0.00 0.00 76 1015.8
20260507073331 12 308 3.2 9.7 0.00 0.00 0.00 75 1015.8
20260507072832 12 353 4.8 9.7 0.00 0.00 0.00 76 1015.8
20260507072319 12 340 6.4 9.7 0.00 0.00 0.00 76 1015.8
20260507071822 11 266 1.6 6.4 0.00 0.00 0.00 78 1015.7
20260507071317 11 348 3.2 6.4 0.00 0.00 0.00 77 1015.7
20260507070832 11 13 3.2 6.4 0.00 0.00 0.00 77 1015.6
20260507070354 11 355 1.6 4.8 0.00 0.00 0.00 79 1015.6
20260507065815 11 15 0.0 3.2 0.00 0.00 0.00 80 1015.6
20260507065328 11 65 1.6 4.8 0.00 0.00 0.00 80 1015.6
20260507064823 11 15 3.2 8.0 0.00 0.00 0.00 80 1015.6
20260507064325 11 236 1.6 8.0 0.00 0.00 0.00 81 1015.7
20260507063832 10 37 3.2 9.7 0.00 0.00 0.00 81 1015.6
20260507063335 10 21 6.4 9.7 0.00 0.00 0.00 81 1015.7
20260507062858 10 302 3.2 11.3 0.00 0.00 0.00 81 1015.6
20260507062325 10 351 8.0 11.3 0.00 0.00 0.00 81 1015.6
20260507061824 10 317 4.8 11.3 0.00 0.00 0.00 82 1015.5
20260507061318 10 314 4.8 9.7 0.00 0.00 0.00 82 1015.5
20260507060831 10 339 6.4 9.7 0.00 0.00 0.00 83 1015.4
20260507060327 10 6 3.2 4.8 0.00 0.00 0.00 84 1015.4
20260507055819 10 347 3.2 4.8 0.00 0.00 0.00 85 1015.3
20260507055325 10 349 0.0 4.8 0.00 0.00 0.00 85 1015.3
20260507054827 10 33 3.2 6.4 0.00 0.00 0.00 85 1015.3
20260507054321 10 6 3.2 6.4 0.00 0.00 0.00 85 1015.3
20260507053817 10 11 1.6 3.2 0.00 0.00 0.00 85 1015.2
20260507053400 10 27 0.0 3.2 0.00 0.00 0.00 85 1015.2
20260507052813 10 27 1.6 3.2 0.00 0.00 0.00 85 1015.1
20260507052348 10 353 1.6 8.0 0.00 0.00 0.00 85 1015.1
20260507051822 10 343 1.6 9.7 0.00 0.00 0.00 85 1015.0
20260507051324 10 353 4.8 9.7 0.00 0.00 0.00 85 1015.0
20260507050813 10 330 4.8 9.7 0.00 0.00 0.00 86 1014.9
20260507050333 10 359 1.6 4.8 0.00 0.00 0.00 86 1014.8
20260507045825 10 27 1.6 4.8 0.00 0.00 0.00 86 1014.8
20260507045331 10 49 0.0 1.6 0.00 0.00 0.00 86 1014.8
20260507044852 10 49 0.0 0.0 0.00 0.00 0.00 86 1014.6
20260507044334 10 49 0.0 0.0 0.00 0.00 0.00 86 1014.6
20260507043819 10 50 0.0 0.0 0.00 0.00 0.00 86 1014.6
20260507043340 10 49 0.0 0.0 0.00 0.00 0.00 86 1014.5
20260507042816 10 50 0.0 1.6 0.00 0.00 0.00 85 1014.6
20260507042327 10 49 0.0 1.6 0.00 0.00 0.00 85 1014.5
20260507041849 10 49 0.0 1.6 0.00 0.00 0.00 85 1014.4
20260507041324 10 50 0.0 3.2 0.00 0.00 0.00 85 1014.3
20260507040818 10 49 1.6 3.2 0.00 0.00 0.00 85 1014.3
20260507040315 10 53 1.6 3.2 0.00 0.00 0.00 85 1014.2
20260507035825 10 53 0.0 3.2 0.00 0.00 0.00 85 1014.2
20260507035315 10 52 0.0 3.2 0.00 0.00 0.00 85 1014.2
20260507034816 10 52 0.0 1.6 0.00 0.00 0.00 84 1014.1
20260507034329 10 58 0.0 3.2 0.00 0.00 0.00 84 1014.2
20260507033824 10 58 0.0 4.8 0.00 0.00 0.00 84 1014.1
20260507033318 10 61 1.6 6.4 0.00 0.00 0.00 84 1014.1
20260507032818 10 8 1.6 6.4 0.00 0.00 0.00 84 1014.0
20260507032348 10 341 1.6 6.4 0.00 0.00 0.00 84 1014.0
20260507031822 10 342 1.6 6.4 0.00 0.00 0.00 84 1014.0
20260507031323 10 70 3.2 6.4 0.00 0.00 0.00 83 1014.0
20260507030830 10 353 3.2 6.4 0.00 0.00 0.00 83 1014.0
20260507030332 10 356 1.6 8.0 0.00 0.00 0.00 83 1014.0
20260507025817 10 49 3.2 8.0 0.00 0.00 0.00 83 1013.9
20260507025330 10 13 0.0 4.8 0.00 0.00 0.00 82 1013.9
20260507024847 10 360 1.6 8.0 0.00 0.00 0.00 82 1013.9
20260507024342 10 345 1.6 6.4 0.00 0.00 0.00 82 1013.9
20260507023818 10 347 3.2 6.4 0.00 0.00 0.00 82 1013.9
20260507023314 10 6 1.6 6.4 0.00 0.00 0.00 81 1013.9
20260507022816 11 347 1.6 6.4 0.00 0.00 0.00 81 1013.8
20260507022330 11 346 0.0 6.4 0.00 0.00 0.00 81 1013.8
20260507021823 11 338 1.6 6.4 0.00 0.00 0.00 81 1013.7
20260507021319 11 335 1.6 4.8 0.00 0.00 0.00 80 1013.7
20260507020814 11 33 0.0 4.8 0.00 0.00 0.00 80 1013.7
20260507020334 11 344 1.6 4.8 0.00 0.00 0.00 80 1013.6
20260507015901 11 344 0.0 8.0 0.00 0.00 0.00 80 1013.6
20260507015323 11 358 3.2 8.0 0.00 0.00 0.00 80 1013.5
20260507014841 11 4 1.6 6.4 0.00 0.00 0.00 80 1013.4
20260507014343 11 330 0.0 8.0 0.00 0.00 0.00 80 1013.3
20260507013828 11 330 1.6 8.0 0.00 0.00 0.00 80 1013.4
20260507013328 11 347 0.0 3.2 0.00 0.00 0.00 80 1013.4
20260507012823 11 339 0.0 3.2 0.00 0.00 0.00 79 1013.4
20260507012316 11 325 0.0 4.8 0.00 0.00 0.00 79 1013.4
20260507011839 11 359 1.6 4.8 0.00 0.00 0.00 79 1013.4
20260507011315 11 332 1.6 4.8 0.00 0.00 0.00 78 1013.4
20260507010848 11 44 0.0 1.6 0.00 0.00 0.00 78 1013.4
20260507010321 11 44 0.0 4.8 0.00 0.00 0.00 78 1013.4
20260507005827 11 44 1.6 4.8 0.00 0.00 0.00 77 1013.4
20260507005315 11 69 0.0 3.2 0.00 0.00 0.00 77 1013.4
20260507004817 11 25 0.0 4.8 0.00 0.00 0.00 77 1013.3
20260507004313 11 58 0.0 6.4 0.00 0.00 0.00 77 1013.3
20260507003826 11 353 1.6 8.0 0.00 0.00 0.00 77 1013.3
20260507003322 11 341 3.2 8.0 0.00 0.00 0.00 78 1013.3
20260507002823 11 336 0.0 6.4 0.00 0.00 0.00 78 1013.3
20260507002324 11 308 1.6 6.4 0.00 0.00 0.00 78 1013.2
20260507001827 11 328 1.6 4.8 0.00 0.00 0.00 78 1013.2
20260507001321 11 8 0.0 6.4 0.00 0.00 0.00 79 1013.2
20260507000817 11 268 0.0 0.0 0.00 0.00 0.00 80 1013.2
20260507000337 11 269 0.0 0.0 0.00 0.00 0.00 80 1013.2
20260506235825 10 269 0.0 0.0 0.00 0.00 0.00 80 1013.2
20260506235323 11 268 0.0 0.0 0.00 0.00 0.00 80 1013.2
20260506234831 11 269 0.0 0.0 0.00 0.00 0.00 79 1013.2
20260506234334 11 269 0.0 0.0 0.00 0.00 0.00 80 1013.2
20260506233825 11 268 0.0 0.0 0.00 0.00 0.00 79 1013.2
20260506233326 11 269 0.0 1.6 0.00 0.00 0.00 79 1013.2
20260506232820 11 304 0.0 1.6 0.00 0.00 0.00 79 1013.1
20260506232332 11 69 0.0 0.0 0.00 0.00 0.00 79 1013.0
20260506231822 11 69 0.0 0.0 0.00 0.00 0.00 78 1013.0
20260506231324 11 70 0.0 0.0 0.00 0.00 0.00 77 1012.9
20260506230859 11 69 0.0 0.0 0.00 0.00 0.00 78 1012.9
20260506230400 11 69 0.0 0.0 0.00 0.00 0.00 77 1012.9
20260506225824 11 69 0.0 0.0 0.00 0.00 0.00 77 1012.9
20260506225318 11 69 0.0 0.0 0.00 0.00 0.00 77 1012.9
20260506224821 10 70 0.0 0.0 0.00 0.00 0.00 76 1012.9
20260506224344 10 69 0.0 0.0 0.00 0.00 0.00 77 1012.8
20260506223838 11 69 0.0 0.0 0.00 0.00 0.00 76 1012.9
20260506223332 11 69 0.0 0.0 0.00 0.00 0.00 76 1012.8
20260506222828 11 70 0.0 0.0 0.00 0.00 0.00 76 1012.8
20260506222322 11 69 0.0 0.0 0.00 0.00 0.00 76 1012.8
20260506221817 11 69 0.0 0.0 0.00 0.00 0.00 76 1012.7
20260506221320 11 69 0.0 0.0 0.00 0.00 0.00 75 1012.6
20260506220826 11 69 0.0 0.0 0.00 0.00 0.00 75 1012.7
20260506220341 11 69 0.0 0.0 0.00 0.00 0.00 75 1012.7
20260506215815 11 70 0.0 0.0 0.00 0.00 0.00 75 1012.7
20260506215328 11 69 0.0 0.0 0.00 0.00 0.00 75 1012.7
20260506214823 11 69 0.0 0.0 0.00 0.00 0.00 75 1012.7
20260506214342 11 69 0.0 1.6 0.00 0.00 0.00 75 1012.6
20260506213825 11 69 0.0 1.6 0.00 0.00 0.00 75 1012.6
20260506213328 11 72 0.0 1.6 0.00 0.00 0.00 76 1012.6
20260506212824 11 72 0.0 1.6 0.00 0.00 0.00 77 1012.6